GLO1386 SBFL-SBSP

Flight info

Callsign GLO1386
Flight time N/A
Altitude 29000
Route UBROS UM540 ANISE
Aircraft B737/M-SDFGIKLORWXY/LB1

Departure

Time 2026-05-05 22:42
Airport Hercílio Luz International Airport (SBFL)

Arrival

Time N/A
Airport Congonhas–Deputado Freitas Nobre Airport (SBSP)
Time Latitude Longitude Altitude Speed Heading
2026-05-05 22:12 -27.67270 -48.54578 26 ft 0 kts 212°
2026-05-05 22:32 -27.67257 -48.54569 29 ft 4 kts 204°
2026-05-05 22:33 -27.67232 -48.54562 26 ft 4 kts 171°
2026-05-05 22:33 -27.67213 -48.54572 28 ft 1 kts 121°
2026-05-05 22:33 -27.67213 -48.54573 28 ft 1 kts 121°
2026-05-05 22:35 -27.67218 -48.54564 30 ft 3 kts 121°
2026-05-05 22:35 -27.67233 -48.54534 28 ft 5 kts 120°
2026-05-05 22:35 -27.67251 -48.54500 28 ft 5 kts 120°
2026-05-05 22:36 -27.67269 -48.54464 28 ft 5 kts 121°
2026-05-05 22:36 -27.67289 -48.54426 26 ft 6 kts 117°
2026-05-05 22:36 -27.67285 -48.54386 27 ft 5 kts 59°
2026-05-05 22:36 -27.67251 -48.54353 27 ft 7 kts 33°
2026-05-05 22:37 -27.67213 -48.54313 27 ft 8 kts 79°
2026-05-05 22:37 -27.67232 -48.54252 27 ft 8 kts 118°
2026-05-05 22:37 -27.67261 -48.54196 26 ft 8 kts 121°
2026-05-05 22:37 -27.67291 -48.54141 28 ft 8 kts 121°
2026-05-05 22:38 -27.67323 -48.54081 29 ft 12 kts 121°
2026-05-05 22:38 -27.67372 -48.53988 28 ft 14 kts 122°
2026-05-05 22:38 -27.67424 -48.53896 29 ft 14 kts 122°
2026-05-05 22:38 -27.67471 -48.53807 27 ft 13 kts 121°
2026-05-05 22:39 -27.67520 -48.53719 30 ft 14 kts 122°
2026-05-05 22:39 -27.67579 -48.53614 29 ft 16 kts 122°
2026-05-05 22:39 -27.67638 -48.53509 28 ft 16 kts 122°
2026-05-05 22:39 -27.67694 -48.53408 26 ft 15 kts 122°
2026-05-05 22:40 -27.67749 -48.53311 27 ft 14 kts 122°
2026-05-05 22:40 -27.67798 -48.53219 29 ft 11 kts 112°
2026-05-05 22:40 -27.67800 -48.53165 26 ft 11 kts 67°
2026-05-05 22:40 -27.67748 -48.53108 26 ft 10 kts 37°
2026-05-05 22:41 -27.67665 -48.53097 26 ft 10 kts 317°
2026-05-05 22:41 -27.67657 -48.53109 26 ft 0 kts 304°
2026-05-05 22:41 -27.67588 -48.53235 29 ft 55 kts 301°
2026-05-05 22:41 -27.67241 -48.53879 25 ft 133 kts 301°
2026-05-05 22:42 -27.66418 -48.55406 361 ft 190 kts 301°
2026-05-05 22:42 -27.65962 -48.56262 1056 ft 187 kts 300°
2026-05-05 22:42 -27.65334 -48.57480 2244 ft 176 kts 302°
2026-05-05 22:42 -27.64353 -48.58378 2788 ft 202 kts 343°
2026-05-05 22:43 -27.62870 -48.58236 3069 ft 235 kts 22°
2026-05-05 22:43 -27.61376 -48.57334 3617 ft 249 kts 27°
2026-05-05 22:43 -27.59821 -48.56353 4298 ft 262 kts 27°
2026-05-05 22:43 -27.58206 -48.55351 5203 ft 267 kts 26°
2026-05-05 22:44 -27.56560 -48.54337 5736 ft 280 kts 27°
2026-05-05 22:44 -27.54851 -48.53219 6615 ft 285 kts 28°
2026-05-05 22:44 -27.53148 -48.52089 7633 ft 281 kts 28°
2026-05-05 22:44 -27.51444 -48.50958 8509 ft 289 kts 28°
2026-05-05 22:45 -27.49696 -48.49796 9417 ft 294 kts 28°
2026-05-05 22:45 -27.47926 -48.48619 10321 ft 297 kts 28°
2026-05-05 22:45 -27.46089 -48.47399 10763 ft 319 kts 28°
2026-05-05 22:45 -27.44113 -48.46088 11184 ft 337 kts 28°
2026-05-05 22:46 -27.42075 -48.44732 11941 ft 343 kts 28°
2026-05-05 22:46 -27.40006 -48.43355 12772 ft 347 kts 29°
2026-05-05 22:46 -27.37907 -48.41958 13528 ft 354 kts 29°
2026-05-05 22:46 -27.35772 -48.40538 14282 ft 359 kts 29°
2026-05-05 22:47 -27.33612 -48.39103 15010 ft 363 kts 29°
2026-05-05 22:47 -27.31421 -48.37647 15765 ft 368 kts 29°
2026-05-05 22:47 -27.29203 -48.36175 16519 ft 373 kts 29°
2026-05-05 22:47 -27.26945 -48.34679 17239 ft 378 kts 29°
2026-05-05 22:48 -27.24662 -48.33165 17975 ft 383 kts 29°
2026-05-05 22:48 -27.22347 -48.31631 18666 ft 389 kts 29°
2026-05-05 22:48 -27.20005 -48.30080 19304 ft 393 kts 29°
2026-05-05 22:48 -27.17638 -48.28513 19962 ft 398 kts 29°
2026-05-05 22:49 -27.15239 -48.26926 20622 ft 402 kts 29°
2026-05-05 22:49 -27.12818 -48.25326 21282 ft 406 kts 28°
2026-05-05 22:49 -27.10363 -48.23703 21913 ft 411 kts 28°
2026-05-05 22:49 -27.07888 -48.22069 22520 ft 416 kts 28°
2026-05-05 22:50 -27.05382 -48.20414 23145 ft 420 kts 28°
2026-05-05 22:50 -27.02850 -48.18744 23744 ft 425 kts 28°
2026-05-05 22:50 -27.00290 -48.17056 24301 ft 427 kts 28°
2026-05-05 22:50 -26.97727 -48.15366 24988 ft 426 kts 28°
2026-05-05 22:51 -26.95175 -48.13683 25705 ft 424 kts 28°
2026-05-05 22:51 -26.92660 -48.12027 26372 ft 425 kts 28°
2026-05-05 22:51 -26.90078 -48.10327 27020 ft 426 kts 28°
2026-05-05 22:51 -26.87557 -48.08669 27668 ft 426 kts 27°
2026-05-05 22:52 -26.85003 -48.06990 28351 ft 425 kts 27°
2026-05-05 22:52 -26.82451 -48.05314 28995 ft 425 kts 27°
2026-05-05 22:52 -26.79892 -48.03634 29125 ft 427 kts 27°
2026-05-05 22:53 -26.74792 -48.00287 29159 ft 424 kts 28°
2026-05-05 22:53 -26.69700 -47.96948 29150 ft 425 kts 28°
2026-05-05 22:54 -26.65996 -47.94523 29147 ft 425 kts 28°